Time,TemperatureF,DewpointF,PressureIn,WindDirection,WindDirectionDegrees,WindSpeedMPH,WindSpeedGustMPH,Humidity,HourlyPrecipIn,Conditions,Clouds,dailyrainin,SolarRadiationWatts/m^2,SoftwareType,DateUTC
2013-01-20 00:01:00,22.2,6.9,30.79,SSE,167,4.0,5.0,51,0.00,,,0.00,0,LWC V2.00 B727,2013-01-20 07:01:00,
2013-01-20 00:06:00,22.2,6.9,30.79,SSE,164,4.0,4.0,51,0.00,,,0.00,0,LWC V2.00 B727,2013-01-20 07:06:00,
2013-01-20 00:11:00,22.1,6.8,30.79,South,175,5.0,6.0,51,0.00,,,0.00,0,LWC V2.00 B727,2013-01-20 07:11:00,
2013-01-20 00:16:00,22.1,6.8,30.79,SSE,163,2.0,4.0,51,0.00,,,0.00,0,LWC V2.00 B727,2013-01-20 07:16:00,
2013-01-20 00:21:00,22.0,6.7,30.79,SSE,163,0.0,4.0,51,0.00,,,0.00,0,LWC V2.00 B727,2013-01-20 07:21:00,
2013-01-20 00:26:00,21.9,6.6,30.79,SSE,157,2.0,3.0,51,0.00,,,0.00,0,LWC V2.00 B727,2013-01-20 07:26:00,
2013-01-20 00:31:00,21.8,6.5,30.79,SSE,161,4.0,4.0,51,0.00,,,0.00,0,LWC V2.00 B727,2013-01-20 07:31:00,
2013-01-20 00:36:00,21.7,6.8,30.79,SSE,160,4.0,4.0,52,0.00,,,0.00,0,LWC V2.00 B727,2013-01-20 07:36:00,
2013-01-20 00:41:00,21.6,6.7,30.79,South,178,1.0,6.0,52,0.00,,,0.00,0,LWC V2.00 B727,2013-01-20 07:41:00,
2013-01-20 00:46:00,21.5,7.1,30.79,South,179,3.0,5.0,53,0.00,,,0.00,0,LWC V2.00 B727,2013-01-20 07:46:00,
2013-01-20 00:51:00,21.3,6.9,30.79,South,172,2.0,5.0,53,0.00,,,0.00,0,LWC V2.00 B727,2013-01-20 07:51:00,
2013-01-20 00:56:00,21.1,6.3,30.79,SSE,168,3.0,5.0,52,0.00,,,0.00,0,LWC V2.00 B727,2013-01-20 07:56:00,
2013-01-20 01:01:00,21.0,6.6,30.79,South,175,3.0,5.0,53,0.00,,,0.00,0,LWC V2.00 B727,2013-01-20 08:01:00,
2013-01-20 01:06:00,20.9,6.5,30.79,SSE,155,3.0,3.0,53,0.00,,,0.00,0,LWC V2.00 B727,2013-01-20 08:06:00,
2013-01-20 01:11:00,20.8,6.0,30.79,SSE,153,3.0,3.0,52,0.00,,,0.00,0,LWC V2.00 B727,2013-01-20 08:11:00,
2013-01-20 01:16:00,20.7,6.3,30.78,SSE,153,3.0,4.0,53,0.00,,,0.00,0,LWC V2.00 B727,2013-01-20 08:16:00,
2013-01-20 01:21:00,20.7,6.3,30.79,SSE,161,3.0,4.0,53,0.00,,,0.00,0,LWC V2.00 B727,2013-01-20 08:21:00,
2013-01-20 01:26:00,20.7,6.3,30.79,SSE,158,3.0,5.0,53,0.00,,,0.00,0,LWC V2.00 B727,2013-01-20 08:26:00,
2013-01-20 01:31:00,20.7,6.3,30.79,SSE,159,1.0,3.0,53,0.00,,,0.00,0,LWC V2.00 B727,2013-01-20 08:31:00,
2013-01-20 01:36:00,20.8,6.0,30.79,SSE,160,1.0,2.0,52,0.00,,,0.00,0,LWC V2.00 B727,2013-01-20 08:36:00,
2013-01-20 01:41:00,20.9,6.1,30.78,SSE,161,2.0,5.0,52,0.00,,,0.00,0,LWC V2.00 B727,2013-01-20 08:41:00,
2013-01-20 01:46:00,21.0,6.2,30.79,SSE,163,3.0,4.0,52,0.00,,,0.00,0,LWC V2.00 B727,2013-01-20 08:46:00,
2013-01-20 01:51:00,20.9,6.1,30.79,SSE,160,2.0,4.0,52,0.00,,,0.00,0,LWC V2.00 B727,2013-01-20 08:51:00,
2013-01-20 01:56:00,20.9,5.7,30.79,SSE,149,1.0,3.0,51,0.00,,,0.00,0,LWC V2.00 B727,2013-01-20 08:56:00,
2013-01-20 02:01:00,20.9,5.7,30.79,SSE,150,1.0,2.0,51,0.00,,,0.00,0,LWC V2.00 B727,2013-01-20 09:01:00,
2013-01-20 02:06:00,20.9,5.7,30.79,SSE,150,1.0,4.0,51,0.00,,,0.00,0,LWC V2.00 B727,2013-01-20 09:06:00,
2013-01-20 02:11:00,20.9,5.7,30.78,SSE,153,2.0,3.0,51,0.00,,,0.00,0,LWC V2.00 B727,2013-01-20 09:11:00,
2013-01-20 02:16:00,20.9,5.7,30.79,SSE,152,1.0,4.0,51,0.00,,,0.00,0,LWC V2.00 B727,2013-01-20 09:16:00,
2013-01-20 02:21:00,21.1,5.4,30.79,SSE,154,2.0,3.0,50,0.00,,,0.00,0,LWC V2.00 B727,2013-01-20 09:21:00,
2013-01-20 02:26:00,21.1,5.8,30.79,SSE,153,2.0,3.0,51,0.00,,,0.00,0,LWC V2.00 B727,2013-01-20 09:26:00,
2013-01-20 02:31:00,21.2,5.9,30.79,SSE,163,2.0,5.0,51,0.00,,,0.00,0,LWC V2.00 B727,2013-01-20 09:31:00,
2013-01-20 02:36:00,21.3,6.0,30.79,SSE,159,2.0,3.0,51,0.00,,,0.00,0,LWC V2.00 B727,2013-01-20 09:36:00,
2013-01-20 02:41:00,21.3,5.6,30.79,SSE,148,2.0,3.0,50,0.00,,,0.00,0,LWC V2.00 B727,2013-01-20 09:41:00,
2013-01-20 02:46:00,21.2,5.9,30.79,SE,144,1.0,4.0,51,0.00,,,0.00,0,LWC V2.00 B727,2013-01-20 09:46:00,
2013-01-20 02:51:00,21.1,5.8,30.79,SE,146,1.0,3.0,51,0.00,,,0.00,0,LWC V2.00 B727,2013-01-20 09:51:00,
2013-01-20 02:56:00,21.0,5.7,30.79,SSE,155,1.0,3.0,51,0.00,,,0.00,0,LWC V2.00 B727,2013-01-20 09:56:00,
2013-01-20 03:01:00,20.9,5.7,30.78,SSE,156,2.0,2.0,51,0.00,,,0.00,0,LWC V2.00 B727,2013-01-20 10:01:00,
2013-01-20 03:06:00,20.7,5.5,30.78,SSE,152,0.0,3.0,51,0.00,,,0.00,0,LWC V2.00 B727,2013-01-20 10:06:00,
2013-01-20 03:11:00,20.6,5.4,30.78,SSE,157,1.0,4.0,51,0.00,,,0.00,0,LWC V2.00 B727,2013-01-20 10:11:00,
2013-01-20 03:16:00,20.5,5.3,30.78,SSE,159,3.0,4.0,51,0.00,,,0.00,0,LWC V2.00 B727,2013-01-20 10:16:00,
2013-01-20 03:21:00,20.4,5.2,30.78,SSE,149,2.0,3.0,51,0.00,,,0.00,0,LWC V2.00 B727,2013-01-20 10:21:00,
2013-01-20 03:26:00,20.3,5.1,30.78,SSE,153,3.0,4.0,51,0.00,,,0.00,0,LWC V2.00 B727,2013-01-20 10:26:00,
2013-01-20 03:31:00,20.0,5.2,30.78,SSE,156,3.0,4.0,52,0.00,,,0.00,0,LWC V2.00 B727,2013-01-20 10:31:00,
2013-01-20 03:36:00,19.8,5.1,30.78,SSE,165,2.0,4.0,52,0.00,,,0.00,0,LWC V2.00 B727,2013-01-20 10:36:00,
2013-01-20 03:41:00,19.7,5.4,30.77,SSE,159,2.0,4.0,53,0.00,,,0.00,0,LWC V2.00 B727,2013-01-20 10:41:00,
2013-01-20 03:46:00,19.7,5.4,30.77,SSE,166,2.0,4.0,53,0.00,,,0.00,0,LWC V2.00 B727,2013-01-20 10:46:00,
2013-01-20 03:51:00,19.5,5.2,30.77,SSE,159,4.0,4.0,53,0.00,,,0.00,0,LWC V2.00 B727,2013-01-20 10:51:00,
2013-01-20 03:56:00,19.5,5.2,30.77,South,176,6.0,6.0,53,0.00,,,0.00,0,LWC V2.00 B727,2013-01-20 10:56:00,
2013-01-20 04:01:00,19.5,5.2,30.77,South,175,2.0,5.0,53,0.00,,,0.00,0,LWC V2.00 B727,2013-01-20 11:01:00,
2013-01-20 04:06:00,19.4,5.1,30.76,SSE,159,4.0,4.0,53,0.00,,,0.00,0,LWC V2.00 B727,2013-01-20 11:06:00,
2013-01-20 04:11:00,19.3,5.0,30.76,SSE,161,3.0,5.0,53,0.00,,,0.00,0,LWC V2.00 B727,2013-01-20 11:11:00,
2013-01-20 04:16:00,19.2,4.9,30.76,SSE,167,4.0,4.0,53,0.00,,,0.00,0,LWC V2.00 B727,2013-01-20 11:16:00,
2013-01-20 04:21:00,19.1,4.8,30.76,SSE,168,2.0,3.0,53,0.00,,,0.00,0,LWC V2.00 B727,2013-01-20 11:21:00,
2013-01-20 04:26:00,19.0,4.7,30.76,South,174,2.0,6.0,53,0.00,,,0.00,0,LWC V2.00 B727,2013-01-20 11:26:00,
2013-01-20 04:31:00,19.0,4.7,30.75,South,169,3.0,5.0,53,0.00,,,0.00,0,LWC V2.00 B727,2013-01-20 11:31:00,
2013-01-20 04:36:00,19.0,4.7,30.75,SSE,152,3.0,5.0,53,0.00,,,0.00,0,LWC V2.00 B727,2013-01-20 11:36:00,
2013-01-20 04:41:00,19.1,4.4,30.75,South,174,4.0,5.0,52,0.00,,,0.00,0,LWC V2.00 B727,2013-01-20 11:41:00,
2013-01-20 04:46:00,19.1,4.4,30.75,SSE,165,4.0,4.0,52,0.00,,,0.00,0,LWC V2.00 B727,2013-01-20 11:46:00,
2013-01-20 04:51:00,19.0,4.3,30.75,SSE,161,2.0,5.0,52,0.00,,,0.00,0,LWC V2.00 B727,2013-01-20 11:51:00,
2013-01-20 04:56:00,19.0,4.3,30.75,South,170,3.0,5.0,52,0.00,,,0.00,0,LWC V2.00 B727,2013-01-20 11:56:00,
2013-01-20 05:01:00,18.9,4.2,30.75,SSE,167,0.0,2.0,52,0.00,,,0.00,0,LWC V2.00 B727,2013-01-20 12:01:00,
2013-01-20 05:06:00,18.9,4.2,30.75,SSE,163,1.0,3.0,52,0.00,,,0.00,0,LWC V2.00 B727,2013-01-20 12:06:00,
2013-01-20 05:11:00,18.8,4.1,30.75,SSE,153,3.0,5.0,52,0.00,,,0.00,0,LWC V2.00 B727,2013-01-20 12:11:00,
2013-01-20 05:16:00,18.8,4.1,30.75,SSE,157,2.0,4.0,52,0.00,,,0.00,0,LWC V2.00 B727,2013-01-20 12:16:00,
2013-01-20 05:21:00,18.6,3.9,30.75,SSE,163,2.0,5.0,52,0.00,,,0.00,0,LWC V2.00 B727,2013-01-20 12:21:00,
2013-01-20 05:26:00,18.6,3.9,30.75,SSE,163,2.0,4.0,52,0.00,,,0.00,0,LWC V2.00 B727,2013-01-20 12:26:00,
2013-01-20 05:31:00,18.7,4.0,30.75,SSE,158,2.0,4.0,52,0.00,,,0.00,0,LWC V2.00 B727,2013-01-20 12:31:00,
2013-01-20 05:36:00,18.8,4.1,30.75,SSE,164,2.0,4.0,52,0.00,,,0.00,0,LWC V2.00 B727,2013-01-20 12:36:00,
2013-01-20 05:41:00,18.9,4.2,30.75,SSE,157,4.0,4.0,52,0.00,,,0.00,0,LWC V2.00 B727,2013-01-20 12:41:00,
2013-01-20 05:46:00,18.8,3.7,30.75,SSE,153,2.0,4.0,51,0.00,,,0.00,0,LWC V2.00 B727,2013-01-20 12:46:00,
2013-01-20 05:51:00,18.8,3.7,30.75,SSE,153,4.0,4.0,51,0.00,,,0.00,0,LWC V2.00 B727,2013-01-20 12:51:00,
2013-01-20 05:56:00,18.6,3.9,30.75,SSE,163,5.0,5.0,52,0.00,,,0.00,0,LWC V2.00 B727,2013-01-20 12:56:00,
2013-01-20 06:01:00,18.5,3.4,30.75,SSE,150,1.0,4.0,51,0.00,,,0.00,0,LWC V2.00 B727,2013-01-20 13:01:00,
2013-01-20 06:06:00,18.3,3.7,30.75,South,171,3.0,4.0,52,0.00,,,0.00,0,LWC V2.00 B727,2013-01-20 13:06:00,
2013-01-20 06:11:00,18.3,3.7,30.75,SSE,160,3.0,5.0,52,0.00,,,0.00,0,LWC V2.00 B727,2013-01-20 13:11:00,
2013-01-20 06:16:00,18.2,3.6,30.75,SSE,165,2.0,4.0,52,0.00,,,0.00,0,LWC V2.00 B727,2013-01-20 13:16:00,
2013-01-20 06:21:00,18.3,3.7,30.75,SSE,154,2.0,4.0,52,0.00,,,0.00,0,LWC V2.00 B727,2013-01-20 13:21:00,
2013-01-20 06:26:00,18.2,3.6,30.75,SSE,159,1.0,4.0,52,0.00,,,0.00,0,LWC V2.00 B727,2013-01-20 13:26:00,
2013-01-20 06:31:00,18.0,3.4,30.75,SSE,159,3.0,4.0,52,0.00,,,0.00,0,LWC V2.00 B727,2013-01-20 13:31:00,
2013-01-20 06:36:00,17.9,3.3,30.76,SSE,159,2.0,4.0,52,0.00,,,0.00,0,LWC V2.00 B727,2013-01-20 13:36:00,
2013-01-20 06:41:00,17.9,3.3,30.76,SSE,158,1.0,3.0,52,0.00,,,0.00,0,LWC V2.00 B727,2013-01-20 13:41:00,
2013-01-20 06:46:00,17.8,3.2,30.75,SSE,161,3.0,5.0,52,0.00,,,0.00,0,LWC V2.00 B727,2013-01-20 13:46:00,
2013-01-20 06:51:00,17.8,3.2,30.76,SSE,161,2.0,3.0,52,0.00,,,0.00,0,LWC V2.00 B727,2013-01-20 13:51:00,
2013-01-20 06:56:00,18.0,3.0,30.76,SSE,159,1.0,3.0,51,0.00,,,0.00,0,LWC V2.00 B727,2013-01-20 13:56:00,
2013-01-20 07:01:00,18.2,3.1,30.75,SSE,168,2.0,3.0,51,0.00,,,0.00,0,LWC V2.00 B727,2013-01-20 14:01:00,
2013-01-20 07:06:00,18.4,3.3,30.75,SSE,153,2.0,3.0,51,0.00,,,0.00,0,LWC V2.00 B727,2013-01-20 14:06:00,
2013-01-20 07:11:00,18.5,3.4,30.75,SSE,159,3.0,5.0,51,0.00,,,0.00,5,LWC V2.00 B727,2013-01-20 14:11:00,
2013-01-20 07:16:00,18.6,3.1,30.75,SE,146,2.0,3.0,50,0.00,,,0.00,7,LWC V2.00 B727,2013-01-20 14:16:00,
2013-01-20 07:21:00,18.6,3.1,30.75,SSE,154,2.0,3.0,50,0.00,,,0.00,9,LWC V2.00 B727,2013-01-20 14:21:00,
2013-01-20 07:26:00,18.7,3.6,30.75,SSE,163,4.0,4.0,51,0.00,,,0.00,11,LWC V2.00 B727,2013-01-20 14:26:00,
2013-01-20 07:32:00,18.8,3.3,30.75,SSE,165,5.0,5.0,50,0.00,,,0.00,11,LWC V2.00 B727,2013-01-20 14:32:00,
2013-01-20 07:37:00,19.1,3.6,30.75,SE,146,2.0,4.0,50,0.00,,,0.00,12,LWC V2.00 B727,2013-01-20 14:37:00,
2013-01-20 07:42:00,19.2,3.6,30.75,SSE,163,3.0,4.0,50,0.00,,,0.00,37,LWC V2.00 B727,2013-01-20 14:42:00,
2013-01-20 07:47:00,19.3,3.3,30.75,SSE,161,3.0,4.0,49,0.00,,,0.00,53,LWC V2.00 B727,2013-01-20 14:47:00,
2013-01-20 07:52:00,19.4,3.4,30.75,SSE,155,3.0,4.0,49,0.00,,,0.00,113,LWC V2.00 B727,2013-01-20 14:52:00,
2013-01-20 07:57:00,19.5,3.5,30.75,SSE,163,2.0,5.0,49,0.00,,,0.00,88,LWC V2.00 B727,2013-01-20 14:57:00,
2013-01-20 08:02:00,19.7,3.7,30.75,SSE,160,2.0,4.0,49,0.00,,,0.00,158,LWC V2.00 B727,2013-01-20 15:02:00,
2013-01-20 08:07:00,19.9,3.4,30.75,South,169,4.0,4.0,48,0.00,,,0.00,114,LWC V2.00 B727,2013-01-20 15:07:00,
2013-01-20 08:12:00,20.5,4.0,30.75,SSE,150,4.0,4.0,48,0.00,,,0.00,200,LWC V2.00 B727,2013-01-20 15:12:00,
2013-01-20 08:17:00,21.0,4.0,30.75,SSE,151,2.0,4.0,47,0.00,,,0.00,185,LWC V2.00 B727,2013-01-20 15:17:00,
2013-01-20 08:22:00,21.6,4.1,30.75,SSE,152,2.0,4.0,46,0.00,,,0.00,250,LWC V2.00 B727,2013-01-20 15:22:00,
2013-01-20 08:27:00,22.3,4.7,30.75,SSE,155,4.0,4.0,46,0.00,,,0.00,269,LWC V2.00 B727,2013-01-20 15:27:00,
2013-01-20 08:32:00,22.8,5.2,30.75,SSE,156,4.0,4.0,46,0.00,,,0.00,288,LWC V2.00 B727,2013-01-20 15:32:00,
2013-01-20 08:37:00,23.3,6.1,30.75,SSE,158,3.0,4.0,47,0.00,,,0.00,306,LWC V2.00 B727,2013-01-20 15:37:00,
2013-01-20 08:42:00,23.8,6.1,30.74,SSE,158,2.0,3.0,46,0.00,,,0.00,322,LWC V2.00 B727,2013-01-20 15:42:00,
2013-01-20 08:47:00,24.2,6.0,30.74,SSE,152,3.0,4.0,45,0.00,,,0.00,339,LWC V2.00 B727,2013-01-20 15:47:00,
2013-01-20 08:52:00,25.0,6.7,30.74,SSE,153,2.0,4.0,45,0.00,,,0.00,357,LWC V2.00 B727,2013-01-20 15:52:00,
2013-01-20 08:57:00,25.8,6.9,30.74,South,169,5.0,5.0,44,0.00,,,0.00,373,LWC V2.00 B727,2013-01-20 15:57:00,
2013-01-20 09:02:00,26.5,7.6,30.74,South,169,1.0,4.0,44,0.00,,,0.00,390,LWC V2.00 B727,2013-01-20 16:02:00,
2013-01-20 09:07:00,27.1,8.1,30.74,SSE,167,2.0,4.0,44,0.00,,,0.00,406,LWC V2.00 B727,2013-01-20 16:07:00,
2013-01-20 09:12:00,27.8,8.8,30.73,SSE,162,2.0,3.0,44,0.00,,,0.00,422,LWC V2.00 B727,2013-01-20 16:12:00,
2013-01-20 09:17:00,28.6,9.5,30.74,SSE,167,3.0,4.0,44,0.00,,,0.00,436,LWC V2.00 B727,2013-01-20 16:17:00,
2013-01-20 09:22:00,29.2,9.5,30.73,SSE,150,2.0,4.0,43,0.00,,,0.00,452,LWC V2.00 B727,2013-01-20 16:22:00,
2013-01-20 09:27:00,30.0,10.2,30.73,SSE,150,2.0,3.0,43,0.00,,,0.00,466,LWC V2.00 B727,2013-01-20 16:27:00,
2013-01-20 09:32:00,30.8,10.4,30.73,SSE,150,0.0,1.0,42,0.00,,,0.00,482,LWC V2.00 B727,2013-01-20 16:32:00,
2013-01-20 09:37:00,31.6,10.1,30.73,SSE,150,0.0,1.0,40,0.00,,,0.00,496,LWC V2.00 B727,2013-01-20 16:37:00,
2013-01-20 09:42:00,32.4,11.4,30.73,SSE,150,0.0,1.0,41,0.00,,,0.00,506,LWC V2.00 B727,2013-01-20 16:42:00,
2013-01-20 09:47:00,33.2,11.5,30.73,SSE,150,0.0,0.0,40,0.00,,,0.00,522,LWC V2.00 B727,2013-01-20 16:47:00,
2013-01-20 09:52:00,34.2,11.3,30.73,SSE,150,0.0,0.0,38,0.00,,,0.00,536,LWC V2.00 B727,2013-01-20 16:52:00,
2013-01-20 09:57:00,35.1,11.5,30.73,SSE,150,0.0,1.0,37,0.00,,,0.00,548,LWC V2.00 B727,2013-01-20 16:57:00,
2013-01-20 10:02:00,36.0,11.7,30.73,SSE,150,0.0,0.0,36,0.00,,,0.00,561,LWC V2.00 B727,2013-01-20 17:02:00,
2013-01-20 10:07:00,37.0,11.9,30.73,SSE,150,0.0,0.0,35,0.00,,,0.00,571,LWC V2.00 B727,2013-01-20 17:07:00,
2013-01-20 10:12:00,37.9,12.1,30.72,SSE,150,0.0,0.0,34,0.00,,,0.00,584,LWC V2.00 B727,2013-01-20 17:12:00,
2013-01-20 10:17:00,38.8,12.9,30.72,SSE,150,0.0,0.0,34,0.00,,,0.00,592,LWC V2.00 B727,2013-01-20 17:17:00,
2013-01-20 10:22:00,39.6,11.5,30.72,SSE,150,0.0,0.0,31,0.00,,,0.00,605,LWC V2.00 B727,2013-01-20 17:22:00,
2013-01-20 10:27:00,40.3,13.5,30.72,SSE,150,0.0,1.0,33,0.00,,,0.00,615,LWC V2.00 B727,2013-01-20 17:27:00,
2013-01-20 10:32:00,40.9,16.0,30.72,SE,138,0.0,1.0,36,0.00,,,0.00,621,LWC V2.00 B727,2013-01-20 17:32:00,
2013-01-20 10:37:00,41.1,16.2,30.71,ENE,78,3.0,3.0,36,0.00,,,0.00,626,LWC V2.00 B727,2013-01-20 17:37:00,
2013-01-20 10:42:00,41.1,15.6,30.71,NNE,30,1.0,4.0,35,0.00,,,0.00,638,LWC V2.00 B727,2013-01-20 17:42:00,
2013-01-20 10:47:00,41.0,16.1,30.70,NNE,29,0.0,3.0,36,0.00,,,0.00,645,LWC V2.00 B727,2013-01-20 17:47:00,
2013-01-20 10:52:00,41.1,15.6,30.70,NNE,30,1.0,2.0,35,0.00,,,0.00,654,LWC V2.00 B727,2013-01-20 17:52:00,
2013-01-20 10:57:00,40.9,17.9,30.70,NNE,30,2.0,2.0,39,0.00,,,0.00,661,LWC V2.00 B727,2013-01-20 17:57:00,
2013-01-20 11:02:00,40.4,16.8,30.69,NNE,30,1.0,2.0,38,0.00,,,0.00,666,LWC V2.00 B727,2013-01-20 18:02:00,
2013-01-20 11:07:00,40.2,18.4,30.69,NNE,29,0.0,0.0,41,0.00,,,0.00,673,LWC V2.00 B727,2013-01-20 18:07:00,
2013-01-20 11:12:00,40.6,15.1,30.68,North,5,0.0,4.0,35,0.00,,,0.00,680,LWC V2.00 B727,2013-01-20 18:12:00,
2013-01-20 11:17:00,41.2,14.3,30.68,NNE,17,1.0,2.0,33,0.00,,,0.00,687,LWC V2.00 B727,2013-01-20 18:17:00,
2013-01-20 11:22:00,42.2,13.0,30.68,NNE,15,2.0,4.0,30,0.00,,,0.00,693,LWC V2.00 B727,2013-01-20 18:22:00,
2013-01-20 11:27:00,43.2,11.5,30.67,North,0,0.0,2.0,27,0.00,,,0.00,698,LWC V2.00 B727,2013-01-20 18:27:00,
2013-01-20 11:32:00,44.0,13.8,30.67,North,0,0.0,2.0,29,0.00,,,0.00,703,LWC V2.00 B727,2013-01-20 18:32:00,
2013-01-20 11:37:00,44.6,12.7,30.67,West,273,1.0,2.0,27,0.00,,,0.00,707,LWC V2.00 B727,2013-01-20 18:37:00,
2013-01-20 11:42:00,44.8,12.0,30.66,North,5,3.0,3.0,26,0.00,,,0.00,710,LWC V2.00 B727,2013-01-20 18:42:00,
2013-01-20 11:47:00,44.8,11.2,30.66,NNW,340,1.0,3.0,25,0.00,,,0.00,714,LWC V2.00 B727,2013-01-20 18:47:00,
2013-01-20 11:52:00,44.7,11.1,30.66,NNE,21,2.0,4.0,25,0.00,,,0.00,717,LWC V2.00 B727,2013-01-20 18:52:00,
2013-01-20 11:57:00,44.6,12.7,30.65,NNE,17,2.0,3.0,27,0.00,,,0.00,719,LWC V2.00 B727,2013-01-20 18:57:00,
2013-01-20 12:02:00,44.4,10.8,30.65,North,9,4.0,5.0,25,0.00,,,0.00,721,LWC V2.00 B727,2013-01-20 19:02:00,
2013-01-20 12:07:00,44.1,11.4,30.64,North,0,3.0,3.0,26,0.00,,,0.00,721,LWC V2.00 B727,2013-01-20 19:07:00,
2013-01-20 12:12:00,43.9,10.4,30.64,North,0,3.0,5.0,25,0.00,,,0.00,722,LWC V2.00 B727,2013-01-20 19:12:00,
2013-01-20 12:17:00,43.8,11.2,30.64,North,10,0.0,3.0,26,0.00,,,0.00,722,LWC V2.00 B727,2013-01-20 19:17:00,
2013-01-20 12:22:00,43.9,13.7,30.64,WNW,288,0.0,4.0,29,0.00,,,0.00,724,LWC V2.00 B727,2013-01-20 19:22:00,
2013-01-20 12:27:00,43.9,10.4,30.63,North,9,2.0,3.0,25,0.00,,,0.00,722,LWC V2.00 B727,2013-01-20 19:27:00,
2013-01-20 12:32:00,44.0,10.5,30.63,North,9,0.0,2.0,25,0.00,,,0.00,721,LWC V2.00 B727,2013-01-20 19:32:00,
2013-01-20 12:37:00,44.4,11.7,30.63,North,9,0.0,1.0,26,0.00,,,0.00,719,LWC V2.00 B727,2013-01-20 19:37:00,
2013-01-20 12:42:00,44.9,13.0,30.62,WNW,288,3.0,3.0,27,0.00,,,0.00,717,LWC V2.00 B727,2013-01-20 19:42:00,
2013-01-20 12:47:00,45.2,13.2,30.62,WSW,249,0.0,6.0,27,0.00,,,0.00,715,LWC V2.00 B727,2013-01-20 19:47:00,
2013-01-20 12:52:00,45.2,17.1,30.62,WSW,248,0.0,1.0,32,0.00,,,0.00,714,LWC V2.00 B727,2013-01-20 19:52:00,
2013-01-20 12:57:00,45.3,15.7,30.61,WSW,248,0.0,1.0,30,0.00,,,0.00,710,LWC V2.00 B727,2013-01-20 19:57:00,
2013-01-20 13:02:00,45.4,15.0,30.61,WSW,248,4.0,4.0,29,0.00,,,0.00,707,LWC V2.00 B727,2013-01-20 20:02:00,
2013-01-20 13:07:00,45.6,15.2,30.61,WSW,244,4.0,6.0,29,0.00,,,0.00,703,LWC V2.00 B727,2013-01-20 20:07:00,
2013-01-20 13:12:00,45.5,14.3,30.61,WSW,240,0.0,1.0,28,0.00,,,0.00,696,LWC V2.00 B727,2013-01-20 20:12:00,
2013-01-20 13:17:00,45.1,14.0,30.60,WSW,245,2.0,6.0,28,0.00,,,0.00,693,LWC V2.00 B727,2013-01-20 20:17:00,
2013-01-20 13:22:00,45.0,13.1,30.61,WSW,244,0.0,6.0,27,0.00,,,0.00,686,LWC V2.00 B727,2013-01-20 20:22:00,
2013-01-20 13:27:00,44.7,15.2,30.60,SW,226,2.0,5.0,30,0.00,,,0.00,679,LWC V2.00 B727,2013-01-20 20:27:00,
2013-01-20 13:32:00,44.6,15.1,30.61,WSW,254,0.0,4.0,30,0.00,,,0.00,675,LWC V2.00 B727,2013-01-20 20:32:00,
2013-01-20 13:37:00,44.6,15.1,30.60,WSW,244,0.0,6.0,30,0.00,,,0.00,664,LWC V2.00 B727,2013-01-20 20:37:00,
2013-01-20 13:42:00,44.7,15.9,30.60,SW,221,1.0,2.0,31,0.00,,,0.00,656,LWC V2.00 B727,2013-01-20 20:42:00,
2013-01-20 13:47:00,44.6,16.6,30.61,NW,321,2.0,2.0,32,0.00,,,0.00,647,LWC V2.00 B727,2013-01-20 20:47:00,
2013-01-20 13:52:00,44.5,15.0,30.60,WSW,244,0.0,4.0,30,0.00,,,0.00,638,LWC V2.00 B727,2013-01-20 20:52:00,
2013-01-20 13:57:00,44.5,15.0,30.60,SW,217,0.0,4.0,30,0.00,,,0.00,629,LWC V2.00 B727,2013-01-20 20:57:00,
2013-01-20 14:02:00,44.7,14.4,30.60,South,190,0.0,0.0,29,0.00,,,0.00,621,LWC V2.00 B727,2013-01-20 21:02:00,
2013-01-20 14:07:00,44.9,15.4,30.60,SSW,192,0.0,3.0,30,0.00,,,0.00,613,LWC V2.00 B727,2013-01-20 21:07:00,
2013-01-20 14:12:00,44.7,14.4,30.60,NNE,15,2.0,5.0,29,0.00,,,0.00,601,LWC V2.00 B727,2013-01-20 21:12:00,
2013-01-20 14:17:00,44.4,14.2,30.59,NNE,15,1.0,3.0,29,0.00,,,0.00,587,LWC V2.00 B727,2013-01-20 21:17:00,
2013-01-20 14:22:00,44.3,14.1,30.59,North,5,3.0,4.0,29,0.00,,,0.00,577,LWC V2.00 B727,2013-01-20 21:22:00,
2013-01-20 14:27:00,44.1,15.4,30.59,WSW,254,3.0,3.0,31,0.00,,,0.00,564,LWC V2.00 B727,2013-01-20 21:27:00,
2013-01-20 14:32:00,43.8,13.6,30.59,North,0,2.0,3.0,29,0.00,,,0.00,561,LWC V2.00 B727,2013-01-20 21:32:00,
2013-01-20 14:37:00,43.7,15.1,30.59,North,11,3.0,4.0,31,0.00,,,0.00,543,LWC V2.00 B727,2013-01-20 21:37:00,
2013-01-20 14:42:00,43.3,14.7,30.59,SW,221,1.0,5.0,31,0.00,,,0.00,533,LWC V2.00 B727,2013-01-20 21:42:00,
2013-01-20 14:47:00,42.9,16.5,30.59,North,355,0.0,3.0,34,0.00,,,0.00,520,LWC V2.00 B727,2013-01-20 21:47:00,
2013-01-20 14:52:00,42.8,17.1,30.59,North,355,2.0,4.0,35,0.00,,,0.00,510,LWC V2.00 B727,2013-01-20 21:52:00,
2013-01-20 14:57:00,42.7,16.3,30.59,SW,228,2.0,4.0,34,0.00,,,0.00,496,LWC V2.00 B727,2013-01-20 21:57:00,
2013-01-20 15:02:00,42.7,14.9,30.60,NNW,337,1.0,6.0,32,0.00,,,0.00,480,LWC V2.00 B727,2013-01-20 22:02:00,
2013-01-20 15:07:00,42.4,14.7,30.59,NNE,17,0.0,4.0,32,0.00,,,0.00,468,LWC V2.00 B727,2013-01-20 22:07:00,
2013-01-20 15:12:00,42.1,14.4,30.60,NNW,329,2.0,6.0,32,0.00,,,0.00,454,LWC V2.00 B727,2013-01-20 22:12:00,
2013-01-20 15:17:00,41.8,12.7,30.60,NNW,327,0.0,2.0,30,0.00,,,0.00,438,LWC V2.00 B727,2013-01-20 22:17:00,
2013-01-20 15:22:00,41.8,14.8,30.60,NNW,327,0.0,1.0,33,0.00,,,0.00,422,LWC V2.00 B727,2013-01-20 22:22:00,
2013-01-20 15:27:00,42.0,15.0,30.60,NNW,328,0.0,0.0,33,0.00,,,0.00,406,LWC V2.00 B727,2013-01-20 22:27:00,
2013-01-20 15:32:00,41.6,16.6,30.60,NNW,328,0.0,0.0,36,0.00,,,0.00,394,LWC V2.00 B727,2013-01-20 22:32:00,
2013-01-20 15:37:00,41.0,14.8,30.60,NNW,327,0.0,0.0,34,0.00,,,0.00,373,LWC V2.00 B727,2013-01-20 22:37:00,
2013-01-20 15:42:00,40.7,13.9,30.60,NNW,327,0.0,0.0,33,0.00,,,0.00,357,LWC V2.00 B727,2013-01-20 22:42:00,
2013-01-20 15:47:00,40.2,13.4,30.60,NNW,328,0.0,2.0,33,0.00,,,0.00,343,LWC V2.00 B727,2013-01-20 22:47:00,
2013-01-20 15:52:00,40.5,13.7,30.60,NNW,327,0.0,0.0,33,0.00,,,0.00,323,LWC V2.00 B727,2013-01-20 22:52:00,
2013-01-20 15:57:00,40.4,14.3,30.60,NNW,327,0.0,0.0,34,0.00,,,0.00,302,LWC V2.00 B727,2013-01-20 22:57:00,
2013-01-20 16:02:00,40.0,13.9,30.60,NNW,327,0.0,0.0,34,0.00,,,0.00,281,LWC V2.00 B727,2013-01-20 23:02:00,
2013-01-20 16:07:00,39.2,13.9,30.60,NNW,328,0.0,0.0,35,0.00,,,0.00,258,LWC V2.00 B727,2013-01-20 23:07:00,
2013-01-20 16:12:00,38.6,13.3,30.60,NNW,327,0.0,0.0,35,0.00,,,0.00,236,LWC V2.00 B727,2013-01-20 23:12:00,
2013-01-20 16:17:00,38.6,13.3,30.60,NNW,328,0.0,0.0,35,0.00,,,0.00,62,LWC V2.00 B727,2013-01-20 23:17:00,
2013-01-20 16:22:00,38.5,13.3,30.60,NNW,328,0.0,0.0,35,0.00,,,0.00,23,LWC V2.00 B727,2013-01-20 23:22:00,
2013-01-20 16:27:00,38.2,13.0,30.61,NNW,327,0.0,0.0,35,0.00,,,0.00,21,LWC V2.00 B727,2013-01-20 23:27:00,
2013-01-20 16:32:00,37.8,12.0,30.61,NNW,328,0.0,0.0,34,0.00,,,0.00,21,LWC V2.00 B727,2013-01-20 23:32:00,
2013-01-20 16:37:00,37.5,13.6,30.61,NNW,327,0.0,0.0,37,0.00,,,0.00,19,LWC V2.00 B727,2013-01-20 23:37:00,
2013-01-20 16:42:00,37.0,14.4,30.62,NNW,328,0.0,0.0,39,0.00,,,0.00,19,LWC V2.00 B727,2013-01-20 23:42:00,
2013-01-20 16:47:00,36.5,15.1,30.62,NNW,328,0.0,1.0,41,0.00,,,0.00,16,LWC V2.00 B727,2013-01-20 23:47:00,
2013-01-20 16:52:00,35.8,14.4,30.62,NNW,327,0.0,1.0,41,0.00,,,0.00,14,LWC V2.00 B727,2013-01-20 23:52:00,
2013-01-20 16:57:00,35.3,14.5,30.62,NNW,327,0.0,1.0,42,0.00,,,0.00,12,LWC V2.00 B727,2013-01-20 23:57:00,
2013-01-20 17:02:00,34.7,15.0,30.63,NNW,328,0.0,0.0,44,0.00,,,0.00,11,LWC V2.00 B727,2013-01-21 00:02:00,
2013-01-20 17:07:00,33.9,14.3,30.63,NNW,327,0.0,1.0,44,0.00,,,0.00,9,LWC V2.00 B727,2013-01-21 00:07:00,
2013-01-20 17:12:00,32.9,13.9,30.63,West,271,0.0,2.0,45,0.00,,,0.00,7,LWC V2.00 B727,2013-01-21 00:12:00,
2013-01-20 17:17:00,31.8,13.4,30.64,South,174,1.0,2.0,46,0.00,,,0.00,5,LWC V2.00 B727,2013-01-21 00:17:00,
2013-01-20 17:22:00,30.9,13.1,30.64,SSE,161,2.0,2.0,47,0.00,,,0.00,0,LWC V2.00 B727,2013-01-21 00:22:00,
2013-01-20 17:27:00,30.2,12.9,30.64,SSE,163,1.0,2.0,48,0.00,,,0.00,0,LWC V2.00 B727,2013-01-21 00:27:00,
2013-01-20 17:32:00,29.6,12.3,30.65,SSE,161,1.0,2.0,48,0.00,,,0.00,0,LWC V2.00 B727,2013-01-21 00:32:00,
2013-01-20 17:37:00,29.3,12.1,30.65,SSE,155,1.0,2.0,48,0.00,,,0.00,0,LWC V2.00 B727,2013-01-21 00:37:00,
2013-01-20 17:42:00,28.9,12.2,30.65,SSE,157,2.0,2.0,49,0.00,,,0.00,0,LWC V2.00 B727,2013-01-21 00:42:00,
2013-01-20 17:47:00,28.6,11.9,30.65,SSE,156,2.0,2.0,49,0.00,,,0.00,0,LWC V2.00 B727,2013-01-21 00:47:00,
2013-01-20 17:52:00,28.3,12.1,30.65,SSE,156,3.0,3.0,50,0.00,,,0.00,0,LWC V2.00 B727,2013-01-21 00:52:00,
2013-01-20 17:57:00,28.1,11.9,30.65,SSE,152,1.0,2.0,50,0.00,,,0.00,0,LWC V2.00 B727,2013-01-21 00:57:00,
2013-01-20 18:02:00,27.8,11.6,30.66,SSE,153,1.0,1.0,50,0.00,,,0.00,0,LWC V2.00 B727,2013-01-21 01:02:00,
2013-01-20 18:07:00,27.5,11.3,30.66,SSE,156,1.0,2.0,50,0.00,,,0.00,0,LWC V2.00 B727,2013-01-21 01:07:00,
2013-01-20 18:12:00,27.2,11.5,30.66,SE,140,2.0,3.0,51,0.00,,,0.00,0,LWC V2.00 B727,2013-01-21 01:12:00,
2013-01-20 18:17:00,27.0,11.7,30.66,SE,138,2.0,3.0,52,0.00,,,0.00,0,LWC V2.00 B727,2013-01-21 01:17:00,
2013-01-20 18:22:00,26.7,11.5,30.66,SE,140,0.0,2.0,52,0.00,,,0.00,0,LWC V2.00 B727,2013-01-21 01:22:00,
2013-01-20 18:27:00,26.6,11.4,30.66,SE,144,1.0,3.0,52,0.00,,,0.00,0,LWC V2.00 B727,2013-01-21 01:27:00,
2013-01-20 18:32:00,26.5,11.3,30.66,SSE,148,0.0,3.0,52,0.00,,,0.00,0,LWC V2.00 B727,2013-01-21 01:32:00,
2013-01-20 18:37:00,26.3,11.1,30.66,SSE,148,1.0,2.0,52,0.00,,,0.00,0,LWC V2.00 B727,2013-01-21 01:37:00,
2013-01-20 18:42:00,26.2,11.0,30.66,SSE,149,2.0,3.0,52,0.00,,,0.00,0,LWC V2.00 B727,2013-01-21 01:42:00,
2013-01-20 18:47:00,26.2,10.6,30.66,SSE,149,2.0,3.0,51,0.00,,,0.00,0,LWC V2.00 B727,2013-01-21 01:47:00,
2013-01-20 18:52:00,26.1,10.9,30.66,SSE,149,2.0,3.0,52,0.00,,,0.00,0,LWC V2.00 B727,2013-01-21 01:52:00,
2013-01-20 18:57:00,26.0,10.8,30.66,SSE,153,0.0,2.0,52,0.00,,,0.00,0,LWC V2.00 B727,2013-01-21 01:57:00,
2013-01-20 19:02:00,25.9,11.2,30.66,SSE,152,2.0,4.0,53,0.00,,,0.00,0,LWC V2.00 B727,2013-01-21 02:02:00,
2013-01-20 19:07:00,25.7,11.0,30.66,SSE,149,2.0,3.0,53,0.00,,,0.00,0,LWC V2.00 B727,2013-01-21 02:07:00,
2013-01-20 19:12:00,25.6,10.9,30.66,SSE,150,3.0,4.0,53,0.00,,,0.00,0,LWC V2.00 B727,2013-01-21 02:12:00,
2013-01-20 19:17:00,25.4,10.3,30.66,SSE,153,2.0,4.0,52,0.00,,,0.00,0,LWC V2.00 B727,2013-01-21 02:17:00,
2013-01-20 19:22:00,25.4,10.3,30.66,SSE,153,0.0,4.0,52,0.00,,,0.00,0,LWC V2.00 B727,2013-01-21 02:22:00,
2013-01-20 19:27:00,25.3,10.2,30.66,SSE,149,2.0,4.0,52,0.00,,,0.00,0,LWC V2.00 B727,2013-01-21 02:27:00,
2013-01-20 19:32:00,25.3,10.2,30.66,SSE,153,3.0,4.0,52,0.00,,,0.00,0,LWC V2.00 B727,2013-01-21 02:32:00,
2013-01-20 19:37:00,25.3,10.2,30.67,SSE,153,3.0,3.0,52,0.00,,,0.00,0,LWC V2.00 B727,2013-01-21 02:37:00,
2013-01-20 19:42:00,25.3,10.2,30.67,SSE,149,1.0,3.0,52,0.00,,,0.00,0,LWC V2.00 B727,2013-01-21 02:42:00,
2013-01-20 19:47:00,25.1,10.0,30.66,SSE,153,1.0,3.0,52,0.00,,,0.00,0,LWC V2.00 B727,2013-01-21 02:47:00,
2013-01-20 19:52:00,24.9,9.8,30.67,SSE,156,1.0,3.0,52,0.00,,,0.00,0,LWC V2.00 B727,2013-01-21 02:52:00,
2013-01-20 19:57:00,24.8,9.7,30.67,SSE,150,0.0,3.0,52,0.00,,,0.00,0,LWC V2.00 B727,2013-01-21 02:57:00,
2013-01-20 20:02:00,24.7,9.6,30.67,SSE,155,2.0,3.0,52,0.00,,,0.00,0,LWC V2.00 B727,2013-01-21 03:02:00,
2013-01-20 20:07:00,24.5,9.4,30.67,SSE,153,1.0,3.0,52,0.00,,,0.00,0,LWC V2.00 B727,2013-01-21 03:07:00,
2013-01-20 20:12:00,24.3,9.2,30.67,SSE,154,1.0,3.0,52,0.00,,,0.00,0,LWC V2.00 B727,2013-01-21 03:12:00,
2013-01-20 20:17:00,24.2,8.7,30.67,SSE,149,4.0,5.0,51,0.00,,,0.00,0,LWC V2.00 B727,2013-01-21 03:17:00,
2013-01-20 20:22:00,24.3,8.4,30.67,SSE,148,2.0,3.0,50,0.00,,,0.00,0,LWC V2.00 B727,2013-01-21 03:22:00,
2013-01-20 20:27:00,24.4,8.0,30.68,SSE,148,1.0,2.0,49,0.00,,,0.00,0,LWC V2.00 B727,2013-01-21 03:27:00,
2013-01-20 20:32:00,24.3,7.9,30.68,SSE,148,1.0,2.0,49,0.00,,,0.00,0,LWC V2.00 B727,2013-01-21 03:32:00,
2013-01-20 20:37:00,24.1,7.7,30.68,SSE,148,2.0,2.0,49,0.00,,,0.00,0,LWC V2.00 B727,2013-01-21 03:37:00,
2013-01-20 20:42:00,23.6,7.7,30.68,SSE,149,2.0,4.0,50,0.00,,,0.00,0,LWC V2.00 B727,2013-01-21 03:42:00,
2013-01-20 20:47:00,23.1,7.7,30.68,SSE,152,4.0,4.0,51,0.00,,,0.00,0,LWC V2.00 B727,2013-01-21 03:47:00,
2013-01-20 20:52:00,22.8,7.4,30.68,SSE,153,3.0,4.0,51,0.00,,,0.00,0,LWC V2.00 B727,2013-01-21 03:52:00,
2013-01-20 20:57:00,22.6,7.2,30.68,SSE,153,3.0,4.0,51,0.00,,,0.00,0,LWC V2.00 B727,2013-01-21 03:57:00,
2013-01-20 21:02:00,22.5,7.6,30.68,SSE,153,1.0,3.0,52,0.00,,,0.00,0,LWC V2.00 B727,2013-01-21 04:02:00,
2013-01-20 21:07:00,22.3,7.0,30.69,SSE,153,2.0,4.0,51,0.00,,,0.00,0,LWC V2.00 B727,2013-01-21 04:07:00,
2013-01-20 21:12:00,22.2,7.3,30.69,SSE,153,1.0,2.0,52,0.00,,,0.00,0,LWC V2.00 B727,2013-01-21 04:12:00,
2013-01-20 21:17:00,22.1,7.2,30.69,SSE,155,2.0,4.0,52,0.00,,,0.00,0,LWC V2.00 B727,2013-01-21 04:17:00,
2013-01-20 21:22:00,21.9,7.0,30.68,SSE,155,3.0,3.0,52,0.00,,,0.00,0,LWC V2.00 B727,2013-01-21 04:22:00,
2013-01-20 21:27:00,21.9,6.6,30.68,SSE,155,3.0,3.0,51,0.00,,,0.00,0,LWC V2.00 B727,2013-01-21 04:27:00,
2013-01-20 21:32:00,21.9,6.6,30.69,SSE,150,1.0,2.0,51,0.00,,,0.00,0,LWC V2.00 B727,2013-01-21 04:32:00,
2013-01-20 21:37:00,21.8,6.1,30.69,SSE,150,1.0,2.0,50,0.00,,,0.00,0,LWC V2.00 B727,2013-01-21 04:37:00,
2013-01-20 21:42:00,21.6,6.3,30.69,SSE,152,2.0,3.0,51,0.00,,,0.00,0,LWC V2.00 B727,2013-01-21 04:42:00,
2013-01-20 21:47:00,21.5,6.6,30.69,SSE,155,3.0,4.0,52,0.00,,,0.00,0,LWC V2.00 B727,2013-01-21 04:47:00,
2013-01-20 21:52:00,21.3,6.4,30.69,SSE,155,2.0,4.0,52,0.00,,,0.00,0,LWC V2.00 B727,2013-01-21 04:52:00,
2013-01-20 21:57:00,21.1,6.3,30.70,SSE,154,1.0,4.0,52,0.00,,,0.00,0,LWC V2.00 B727,2013-01-21 04:57:00,
2013-01-20 22:00:00,21.0,6.6,30.70,SSE,155,3.0,3.0,53,0.00,,,0.00,0,LWC V2.00 B727,2013-01-21 05:00:00,
2013-01-20 22:01:00,21.0,6.6,30.70,SSE,155,1.0,2.0,53,0.00,,,0.00,0,LWC V2.00 B727,2013-01-21 05:01:00,
2013-01-20 22:06:00,20.9,6.5,30.70,SSE,151,2.0,3.0,53,0.00,,,0.00,0,LWC V2.00 B727,2013-01-21 05:06:00,
2013-01-20 22:11:00,21.1,6.3,30.70,SSE,153,3.0,4.0,52,0.00,,,0.00,0,LWC V2.00 B727,2013-01-21 05:11:00,
2013-01-20 22:16:00,21.2,6.4,30.71,SSE,159,1.0,2.0,52,0.00,,,0.00,0,LWC V2.00 B727,2013-01-21 05:16:00,
2013-01-20 22:21:00,21.1,6.3,30.71,SSE,157,2.0,3.0,52,0.00,,,0.00,0,LWC V2.00 B727,2013-01-21 05:21:00,
2013-01-20 22:26:00,21.1,6.3,30.71,SSE,158,3.0,3.0,52,0.00,,,0.00,0,LWC V2.00 B727,2013-01-21 05:26:00,
2013-01-20 22:31:00,20.9,6.5,30.71,SSE,157,0.0,3.0,53,0.00,,,0.00,0,LWC V2.00 B727,2013-01-21 05:31:00,
2013-01-20 22:36:00,21.0,6.2,30.71,SSE,159,2.0,3.0,52,0.00,,,0.00,0,LWC V2.00 B727,2013-01-21 05:36:00,
2013-01-20 22:41:00,21.1,6.3,30.71,SSE,159,3.0,3.0,52,0.00,,,0.00,0,LWC V2.00 B727,2013-01-21 05:41:00,
2013-01-20 22:46:00,21.2,6.4,30.71,SSE,159,0.0,2.0,52,0.00,,,0.00,0,LWC V2.00 B727,2013-01-21 05:46:00,
2013-01-20 22:51:00,21.0,6.2,30.71,SSE,159,2.0,2.0,52,0.00,,,0.00,0,LWC V2.00 B727,2013-01-21 05:51:00,
2013-01-20 22:56:00,20.9,6.1,30.72,SSE,160,1.0,2.0,52,0.00,,,0.00,0,LWC V2.00 B727,2013-01-21 05:56:00,
2013-01-20 23:01:00,20.7,5.9,30.72,SSE,159,2.0,3.0,52,0.00,,,0.00,0,LWC V2.00 B727,2013-01-21 06:01:00,
2013-01-20 23:06:00,20.5,6.1,30.72,SSE,159,2.0,2.0,53,0.00,,,0.00,0,LWC V2.00 B727,2013-01-21 06:06:00,
2013-01-20 23:11:00,20.3,5.9,30.72,SSE,152,1.0,2.0,53,0.00,,,0.00,0,LWC V2.00 B727,2013-01-21 06:11:00,
2013-01-20 23:16:00,20.0,6.1,30.72,SSE,156,0.0,3.0,54,0.00,,,0.00,0,LWC V2.00 B727,2013-01-21 06:16:00,
2013-01-20 23:21:00,19.8,5.9,30.72,SSE,156,1.0,3.0,54,0.00,,,0.00,0,LWC V2.00 B727,2013-01-21 06:21:00,
2013-01-20 23:26:00,19.9,6.0,30.72,SSE,158,2.0,2.0,54,0.00,,,0.00,0,LWC V2.00 B727,2013-01-21 06:26:00,
2013-01-20 23:31:00,20.0,6.1,30.72,SSE,157,1.0,1.0,54,0.00,,,0.00,0,LWC V2.00 B727,2013-01-21 06:31:00,
2013-01-20 23:36:00,19.9,5.6,30.72,SSE,157,0.0,0.0,53,0.00,,,0.00,0,LWC V2.00 B727,2013-01-21 06:36:00,
2013-01-20 23:41:00,19.7,5.8,30.72,SSE,157,1.0,2.0,54,0.00,,,0.00,0,LWC V2.00 B727,2013-01-21 06:41:00,
2013-01-20 23:46:00,19.6,6.1,30.72,SSE,158,1.0,3.0,55,0.00,,,0.00,0,LWC V2.00 B727,2013-01-21 06:46:00,
2013-01-20 23:51:00,19.5,6.0,30.72,SSE,163,1.0,4.0,55,0.00,,,0.00,0,LWC V2.00 B727,2013-01-21 06:51:00,
2013-01-20 23:56:00,19.5,6.0,30.72,SSE,155,1.0,4.0,55,0.00,,,0.00,0,LWC V2.00 B727,2013-01-21 06:56:00,